Home   Weather   Youngstown   Past weeks
Flag for USA

Past Weather in Youngstown, Ohio, USA — Yesterday and Last 2 Weeks

Now
77 °F

Passing clouds.


Feels Like: 79 °F
Forecast: 84 / 70 °F
Wind: 5 mph from South

Location: Youngstown-Warren Regional Airport

Current Time: Jul 15, 2019 at 10:52:15 pm

Latest Report: Jul 15, 2019 at 9:51 pm


Visibility: 10 mi

Pressure: 30.04 "Hg

Humidity: 60%

Dew Point: 62 °F

Location of YoungstownLocation

Past Weather in Youngstown — Graph

°F

Youngstown Temperature Yesterday

Maximum temperature yesterday: 83 °F (at 4:51 pm)
Minimum temperature yesterday: 61 °F (at 11:51 pm)
Average temperature yesterday: 74 °F

High & Low Weather Summary for the Past Weeks

 TemperatureHumidityPressure
High91 °F (Jul 5, 2:51 pm)93% (Jul 1, 2:51 am)30.15 "Hg (Jul 1, 2:51 am)
Low54 °F (Jul 1, 5:51 am)31% (Jul 1, 1:51 pm)29.78 "Hg (Jul 11, 2:51 pm)
Average75 °F71%29.97 "Hg
* Reported Jun 30 8:51 pm — Jul 15 8:51 pm, Youngstown. Weather by CustomWeather, © 2019

Note: Actual official high and low records may vary slightly from our data, if they occured in-between our weather recording intervals... More about our weather records

Advertising

Youngstown Weather History for the Previous 24 Hours

Scroll right to see more
 ConditionsComfort  
Time TempWeatherWind HumidityBarometerVisibility
8:51 pm
Mon, Jul 15
79 °FPartly sunny.5 mph56%30.04 "Hg10 mi
7:51 pm82 °FScattered clouds.3 mph55%30.04 "Hg10 mi
6:51 pm86 °FPassing clouds.7 mph43%30.05 "Hg10 mi
5:51 pm87 °FPassing clouds.6 mph39%30.06 "Hg10 mi
4:51 pm87 °FPassing clouds.6 mph39%30.07 "Hg10 mi
3:51 pm87 °FScattered clouds.3 mph35%30.09 "Hg10 mi
2:51 pm85 °FPassing clouds.8 mph37%30.10 "Hg10 mi
1:51 pm84 °FScattered clouds.No wind40%30.11 "Hg10 mi
12:51 pm81 °FScattered clouds.3 mph42%30.12 "Hg10 mi
11:51 am80 °FPartly sunny.5 mph42%30.14 "Hg10 mi
10:51 am78 °FScattered clouds.3 mph45%30.14 "Hg10 mi
9:51 am76 °FPartly sunny.No wind54%30.15 "Hg10 mi
8:51 am71 °FPartly sunny.6 mph59%30.15 "Hg10 mi
7:51 am64 °FScattered clouds.5 mph78%30.15 "Hg10 mi
6:51 am58 °FScattered clouds.No wind84%30.13 "Hg10 mi
5:51 am56 °FPassing clouds.No wind87%30.12 "Hg10 mi
4:51 am57 °FPassing clouds.No wind83%30.11 "Hg10 mi
3:51 am56 °FPassing clouds.5 mph87%30.10 "Hg10 mi
2:51 am58 °FPassing clouds.No wind84%30.11 "Hg10 mi
1:51 am57 °FPassing clouds.No wind87%30.13 "Hg10 mi
12:51 am58 °FPassing clouds.No wind84%30.11 "Hg10 mi
11:51 pm
Sun, Jul 14
61 °FPassing clouds.No wind75%30.11 "Hg10 mi
10:51 pm63 °FPassing clouds.No wind68%30.12 "Hg10 mi
Weather by CustomWeather, © 2019

See weather overview

LIVE PARTIAL LUNAR ECLIPSE – Watch the eclipse as it happens